Location: 5810 Zion Rd, Cleves, OH 45002, USA
(39.1922°N, 84.7113°W)
Time: 02:35:17
(UTC-05:00)

Vanguard 3 - Pass Details

Date: 20 December 2019
Orbit: 507 x 3263 km, 33.4° (Epoch: 24 January)

Event Time Altitude Azimuth Distance (km) Brightness Sun altitude
Rises 12:37:37 0° 267° (W) 4,723 11.1 27.4°
Reaches altitude 10° 12:41:34 10° 250° (WSW) 4,180 11.1 27.4°
Maximum altitude 12:49:13 20° 210° (SSW) 4,173 12.2 27.3°
Drops below altitude 10° 12:59:21 10° 172° (S) 5,683 13.0 27.1°
Sets 13:06:21 0° 158° (SSE) 7,034 12.8 27.0°
